| time (UTC) | temp F | wind direction | speed MPH | gust MPH | rain 1hr in | rain 24hr in | rain mn in | humidity % | barometer mb |
| 20260904175516 | 74 | 259 | 6.0 | 12.0 | 0.00 | 0.48 | 0.47 | 85 | 1014.1 |
| 20260904175010 | 74 | 210 | 6.0 | 12.0 | 0.00 | 0.48 | 0.47 | 86 | 1014.2 |
| 20260904174556 | 73 | 135 | 5.0 | 14.0 | 0.00 | 0.48 | 0.47 | 86 | 1014.1 |
| 20260904174017 | 73 | 173 | 5.0 | 14.0 | 0.00 | 0.48 | 0.47 | 87 | 1014.1 |
| 20260904173511 | 73 | 228 | 3.0 | 11.0 | 0.00 | 0.48 | 0.47 | 87 | 1014.2 |
| 20260904173029 | 73 | 238 | 4.0 | 12.0 | 0.00 | 0.48 | 0.47 | 88 | 1014.1 |
| 20260904172521 | 72 | 250 | 4.0 | 12.0 | 0.00 | 0.48 | 0.47 | 88 | 1014.2 |
| 20260904172011 | 72 | 214 | 5.0 | 12.0 | 0.00 | 0.50 | 0.47 | 88 | 1014.4 |
| 20260904171530 | 72 | 136 | 4.0 | 12.0 | 0.00 | 0.50 | 0.47 | 89 | 1014.3 |
| 20260904171019 | 72 | 222 | 4.0 | 12.0 | 0.00 | 0.50 | 0.47 | 89 | 1014.4 |
| 20260904170514 | 72 | 223 | 4.0 | 14.0 | 0.00 | 0.50 | 0.47 | 89 | 1014.4 |
| 20260904170031 | 71 | 280 | 4.0 | 14.0 | 0.00 | 0.50 | 0.47 | 90 | 1014.3 |
| 20260904165519 | 71 | 218 | 5.0 | 10.0 | 0.00 | 0.50 | 0.47 | 90 | 1014.3 |
| 20260904165014 | 70 | 165 | 3.0 | 8.0 | 0.00 | 0.50 | 0.47 | 91 | 1014.5 |
| 20260904164507 | 70 | 225 | 2.0 | 8.0 | 0.00 | 0.50 | 0.47 | 90 | 1014.5 |
| 20260904164007 | 70 | 178 | 1.0 | 15.0 | 0.00 | 0.51 | 0.47 | 91 | 1014.7 |
| 20260904163513 | 70 | 225 | 2.0 | 15.0 | 0.00 | 0.51 | 0.47 | 91 | 1015.0 |
| 20260904163008 | 69 | 238 | 2.0 | 9.0 | 0.00 | 0.51 | 0.47 | 91 | 1015.4 |
| 20260904162508 | 69 | 174 | 3.0 | 9.0 | 0.03 | 0.51 | 0.47 | 91 | 1015.5 |
| 20260904162015 | 69 | 227 | 3.0 | 13.0 | 0.17 | 0.51 | 0.47 | 91 | 1015.1 |
| 20260904161509 | 69 | 263 | 3.0 | 13.0 | 0.35 | 0.51 | 0.47 | 92 | 1015.1 |
| 20260904161011 | 69 | 291 | 3.0 | 9.0 | 0.40 | 0.52 | 0.47 | 92 | 1015.3 |
| 20260904160506 | 69 | 200 | 1.0 | 7.0 | 0.40 | 0.52 | 0.47 | 92 | 1015.1 |
| 20260904160010 | 69 | 180 | 3.0 | 7.0 | 0.40 | 0.54 | 0.47 | 92 | 1015.2 |
| 20260904155507 | 69 | 243 | 2.0 | 11.0 | 0.40 | 0.56 | 0.47 | 91 | 1015.4 |
| 20260904155002 | 69 | 118 | 4.0 | 11.0 | 0.40 | 0.58 | 0.47 | 91 | 1015.6 |
| 20260904154512 | 69 | 95 | 3.0 | 10.0 | 0.40 | 0.60 | 0.47 | 91 | 1015.6 |
| 20260904154010 | 69 | 154 | 3.0 | 11.0 | 0.40 | 0.61 | 0.47 | 91 | 1015.8 |
| 20260904153504 | 69 | 150 | 5.0 | 11.0 | 0.40 | 0.62 | 0.47 | 91 | 1016.0 |
| 20260904153018 | 69 | 254 | 4.0 | 11.0 | 0.40 | 0.64 | 0.47 | 91 | 1016.2 |
| 20260904152519 | 70 | 236 | 2.0 | 12.0 | 0.37 | 0.63 | 0.44 | 90 | 1016.3 |
| 20260904152005 | 70 | 138 | 4.0 | 13.0 | 0.23 | 0.51 | 0.30 | 89 | 1016.5 |
| 20260904151515 | 70 | 82 | 4.0 | 13.0 | 0.05 | 0.33 | 0.12 | 89 | 1017.4 |
| 20260904151013 | 70 | 325 | 5.0 | 9.0 | 0.02 | 0.29 | 0.07 | 89 | 1017.6 |
| 20260904150504 | 70 | 206 | 1.0 | 4.0 | 0.05 | 0.29 | 0.07 | 90 | 1016.7 |
| 20260904150018 | 70 | 182 | 0.0 | 6.0 | 0.05 | 0.37 | 0.07 | 90 | 1016.6 |
| 20260904145512 | 70 | 98 | 3.0 | 7.0 | 0.05 | 0.41 | 0.07 | 90 | 1016.7 |
| 20260904145002 | 69 | 80 | 3.0 | 7.0 | 0.05 | 0.47 | 0.07 | 90 | 1016.7 |
| 20260904144518 | 69 | 28 | 3.0 | 5.0 | 0.05 | 0.50 | 0.07 | 90 | 1016.8 |
| 20260904144015 | 69 | 130 | 0.0 | 9.0 | 0.05 | 0.50 | 0.07 | 90 | 1016.7 |
| 20260904143504 | 69 | 156 | 4.0 | 11.0 | 0.05 | 0.50 | 0.07 | 89 | 1016.7 |
| 20260904143024 | 69 | 59 | 6.0 | 11.0 | 0.05 | 0.50 | 0.07 | 89 | 1016.7 |
| 20260904142515 | 70 | 117 | 4.0 | 9.0 | 0.05 | 0.50 | 0.07 | 89 | 1016.6 |
| 20260904142004 | 70 | 96 | 4.0 | 13.0 | 0.05 | 0.50 | 0.07 | 88 | 1016.7 |
| 20260904141520 | 70 | 119 | 5.0 | 13.0 | 0.05 | 0.50 | 0.07 | 87 | 1016.8 |
| 20260904141015 | 70 | 90 | 8.0 | 13.0 | 0.03 | 0.48 | 0.05 | 86 | 1016.7 |
| 20260904140505 | 70 | 90 | 7.0 | 14.0 | 0.00 | 0.45 | 0.02 | 85 | 1016.9 |
| 20260904140031 | 70 | 88 | 8.0 | 14.0 | 0.00 | 0.45 | 0.02 | 85 | 1017.0 |
| 20260904135514 | 70 | 60 | 5.0 | 15.0 | 0.00 | 0.45 | 0.02 | 85 | 1017.1 |
| 20260904135008 | 70 | 312 | 7.0 | 15.0 | 0.00 | 0.45 | 0.02 | 85 | 1016.7 |
| 20260904134526 | 70 | 352 | 2.0 | 9.0 | 0.00 | 0.45 | 0.02 | 85 | 1017.8 |
| 20260904134014 | 70 | 313 | 3.0 | 10.0 | 0.00 | 0.45 | 0.02 | 85 | 1017.2 |
| 20260904133505 | 70 | 297 | 2.0 | 18.0 | 0.00 | 0.45 | 0.02 | 86 | 1017.6 |
| 20260904133027 | 69 | 73 | 10.0 | 18.0 | 0.00 | 0.45 | 0.02 | 87 | 1017.5 |
| 20260904132518 | 69 | 59 | 9.0 | 19.0 | 0.00 | 0.45 | 0.02 | 88 | 1017.4 |
| 20260904132010 | 69 | 241 | 7.0 | 19.0 | 0.00 | 0.45 | 0.02 | 88 | 1017.7 |
| 20260904131531 | 69 | 352 | 9.0 | 17.0 | 0.00 | 0.45 | 0.02 | 89 | 1017.8 |
| 20260904131003 | 69 | 13 | 4.0 | 13.0 | 0.00 | 0.45 | 0.02 | 89 | 1016.7 |
| 20260904130511 | 69 | 58 | 9.0 | 13.0 | 0.00 | 0.45 | 0.02 | 89 | 1015.8 |
| 20260904130031 | 69 | 50 | 6.0 | 10.0 | 0.00 | 0.45 | 0.02 | 89 | 1015.2 |
| 20260904125504 | 69 | 129 | 5.0 | 11.0 | 0.00 | 0.45 | 0.02 | 89 | 1015.3 |
| 20260904125010 | 69 | 79 | 3.0 | 14.0 | 0.00 | 0.45 | 0.02 | 89 | 1015.7 |
| 20260904124526 | 69 | 90 | 6.0 | 14.0 | 0.00 | 0.45 | 0.02 | 88 | 1015.7 |
| 20260904124005 | 69 | 108 | 7.0 | 12.0 | 0.00 | 0.45 | 0.02 | 88 | 1015.8 |
| 20260904123511 | 69 | 73 | 6.0 | 12.0 | 0.00 | 0.45 | 0.02 | 89 | 1015.9 |
| 20260904123033 | 69 | 61 | 5.0 | 12.0 | 0.00 | 0.45 | 0.02 | 89 | 1015.7 |
| 20260904122507 | 69 | 78 | 6.0 | 14.0 | 0.00 | 0.45 | 0.02 | 90 | 1015.5 |
| 20260904122011 | 69 | 101 | 8.0 | 17.0 | 0.00 | 0.45 | 0.02 | 90 | 1015.5 |
| 20260904121533 | 69 | 88 | 7.0 | 18.0 | 0.00 | 0.45 | 0.02 | 90 | 1015.5 |
| 20260904121005 | 69 | 51 | 11.0 | 19.0 | 0.00 | 0.45 | 0.02 | 90 | 1015.5 |
| 20260904120510 | 69 | 60 | 9.0 | 19.0 | 0.00 | 0.45 | 0.02 | 91 | 1015.5 |
| 20260904120030 | 69 | 47 | 10.0 | 16.0 | 0.00 | 0.45 | 0.02 | 91 | 1015.2 |
| 20260904115508 | 69 | 48 | 10.0 | 16.0 | 0.00 | 0.45 | 0.02 | 91 | 1014.9 |
| 20260904115015 | 69 | 67 | 8.0 | 12.0 | 0.00 | 0.45 | 0.02 | 91 | 1015.0 |
| 20260904114534 | 69 | 115 | 3.0 | 9.0 | 0.00 | 0.45 | 0.02 | 91 | 1014.9 |
| 20260904114012 | 69 | 59 | 5.0 | 11.0 | 0.00 | 0.45 | 0.02 | 91 | 1014.7 |
| 20260904113514 | 69 | 15 | 5.0 | 11.0 | 0.00 | 0.45 | 0.02 | 91 | 1014.5 |
| 20260904113044 | 69 | 126 | 4.0 | 8.0 | 0.00 | 0.45 | 0.02 | 91 | 1014.3 |
| 20260904112509 | 69 | 68 | 5.0 | 9.0 | 0.00 | 0.45 | 0.02 | 91 | 1014.3 |
| 20260904112013 | 69 | 53 | 3.0 | 9.0 | 0.00 | 0.45 | 0.02 | 91 | 1014.2 |
| 20260904111532 | 69 | 117 | 3.0 | 10.0 | 0.00 | 0.45 | 0.02 | 91 | 1014.3 |
| 20260904111011 | 69 | 15 | 4.0 | 10.0 | 0.00 | 0.45 | 0.02 | 90 | 1014.1 |
| 20260904110515 | 70 | 52 | 5.0 | 9.0 | 0.00 | 0.45 | 0.02 | 90 | 1014.2 |
| 20260904110039 | 70 | 84 | 5.0 | 9.0 | 0.00 | 0.45 | 0.02 | 90 | 1014.1 |
| 20260904105510 | 70 | 77 | 4.0 | 8.0 | 0.00 | 0.45 | 0.02 | 90 | 1014.1 |
| 20260904105015 | 70 | 63 | 3.0 | 7.0 | 0.00 | 0.45 | 0.02 | 90 | 1013.9 |
| 20260904104513 | 70 | 149 | 3.0 | 9.0 | 0.00 | 0.45 | 0.02 | 90 | 1013.8 |
| 20260904104010 | 70 | 94 | 2.0 | 9.0 | 0.00 | 0.45 | 0.02 | 89 | 1013.8 |
| 20260904103503 | 71 | 59 | 3.0 | 10.0 | 0.00 | 0.45 | 0.02 | 89 | 1013.9 |
| 20260904103017 | 71 | 69 | 4.0 | 10.0 | 0.00 | 0.45 | 0.02 | 90 | 1013.8 |
| 20260904102504 | 71 | 61 | 5.0 | 8.0 | 0.00 | 0.45 | 0.02 | 90 | 1014.0 |
| 20260904102004 | 71 | 27 | 4.0 | 9.0 | 0.00 | 0.45 | 0.02 | 90 | 1013.8 |
| 20260904101522 | 71 | 69 | 4.0 | 9.0 | 0.00 | 0.45 | 0.02 | 90 | 1014.1 |
| 20260904101002 | 71 | 46 | 2.0 | 9.0 | 0.00 | 0.45 | 0.02 | 90 | 1014.3 |
| 20260904100506 | 71 | 36 | 3.0 | 11.0 | 0.00 | 0.45 | 0.02 | 90 | 1014.3 |
| 20260904100017 | 71 | 66 | 4.0 | 11.0 | 0.00 | 0.45 | 0.02 | 90 | 1014.2 |
| 20260904095504 | 72 | 54 | 5.0 | 11.0 | 0.00 | 0.45 | 0.02 | 90 | 1014.0 |
| 20260904095002 | 72 | 68 | 5.0 | 11.0 | 0.00 | 0.45 | 0.02 | 91 | 1014.0 |
| 20260904094521 | 72 | 53 | 3.0 | 7.0 | 0.00 | 0.45 | 0.02 | 91 | 1014.0 |
| 20260904094003 | 72 | 86 | 1.0 | 7.0 | 0.01 | 0.45 | 0.02 | 91 | 1014.0 |
| 20260904093504 | 72 | 190 | 1.0 | 13.0 | 0.01 | 0.45 | 0.02 | 91 | 1013.7 |
| 20260904093023 | 72 | 162 | 7.0 | 16.0 | 0.01 | 0.45 | 0.02 | 91 | 1013.6 |
| 20260904092504 | 72 | 63 | 10.0 | 16.0 | 0.01 | 0.45 | 0.02 | 91 | 1013.8 |
| 20260904092005 | 72 | 128 | 5.0 | 10.0 | 0.01 | 0.45 | 0.02 | 92 | 1013.9 |
| 20260904091525 | 72 | 61 | 4.0 | 5.0 | 0.01 | 0.45 | 0.02 | 92 | 1013.7 |
| 20260904091003 | 72 | 64 | 1.0 | 2.0 | 0.01 | 0.45 | 0.02 | 92 | 1013.4 |
| 20260904090505 | 72 | 100 | 0.0 | 2.0 | 0.01 | 0.45 | 0.02 | 92 | 1013.2 |
| 20260904090025 | 72 | 87 | 0.0 | 2.0 | 0.01 | 0.45 | 0.02 | 92 | 1013.2 |
| 20260904085504 | 73 | 5 | 0.0 | 2.0 | 0.02 | 0.45 | 0.02 | 92 | 1013.2 |
| 20260904085010 | 72 | 38 | 1.0 | 2.0 | 0.02 | 0.45 | 0.02 | 91 | 1013.1 |
| 20260904084526 | 72 | 112 | 1.0 | 2.0 | 0.02 | 0.45 | 0.02 | 91 | 1012.9 |
| 20260904084003 | 72 | 109 | 0.0 | 2.0 | 0.01 | 0.44 | 0.01 | 91 | 1013.1 |
| 20260904083505 | 72 | 107 | 0.0 | 2.0 | 0.01 | 0.44 | 0.01 | 91 | 1013.3 |
| 20260904083028 | 72 | 9 | 1.0 | 2.0 | 0.01 | 0.44 | 0.01 | 91 | 1013.3 |
| 20260904082504 | 72 | 258 | 2.0 | 2.0 | 0.01 | 0.44 | 0.01 | 91 | 1013.0 |
| 20260904082008 | 72 | 297 | 1.0 | 2.0 | 0.01 | 0.44 | 0.01 | 91 | 1012.9 |
| 20260904081530 | 72 | 300 | 1.0 | 2.0 | 0.01 | 0.44 | 0.01 | 91 | 1012.8 |
| 20260904081003 | 72 | 232 | 0.0 | 2.0 | 0.01 | 0.44 | 0.01 | 91 | 1012.7 |
| 20260904080514 | 72 | 205 | 0.0 | 2.0 | 0.01 | 0.44 | 0.01 | 90 | 1013.0 |
| 20260904080029 | 72 | 168 | 0.0 | 2.0 | 0.01 | 0.44 | 0.01 | 90 | 1013.3 |
| 20260904075504 | 73 | 159 | 0.0 | 2.0 | 0.00 | 0.43 | 0.00 | 90 | 1013.2 |
| 20260904075014 | 73 | 157 | 0.0 | 2.0 | 0.00 | 0.43 | 0.00 | 90 | 1013.3 |
| 20260904074537 | 73 | 142 | 0.0 | 2.0 | 0.00 | 0.43 | 0.00 | 89 | 1013.4 |
| 20260904074004 | 73 | 130 | 0.0 | 2.0 | 0.00 | 0.43 | 0.00 | 89 | 1013.5 |
| 20260904073508 | 73 | 67 | 0.0 | 3.0 | 0.00 | 0.43 | 0.00 | 89 | 1013.5 |
| 20260904073004 | 73 | 78 | 1.0 | 3.0 | 0.00 | 0.43 | 0.00 | 88 | 1013.7 |
| 20260904072517 | 73 | 68 | 1.0 | 2.0 | 0.00 | 0.43 | 0.00 | 88 | 1013.9 |
| 20260904072009 | 73 | 134 | 0.0 | 2.0 | 0.00 | 0.43 | 0.00 | 88 | 1013.6 |
| 20260904071505 | 73 | 94 | 0.0 | 6.0 | 0.00 | 0.43 | 0.00 | 88 | 1013.5 |
| 20260904071008 | 73 | 113 | 2.0 | 5.0 | 0.00 | 0.43 | 0.00 | 88 | 1013.4 |
| 20260904070516 | 73 | 82 | 0.0 | 4.0 | 0.00 | 0.43 | 0.00 | 88 | 1013.6 |
| 20260904070025 | 73 | 114 | 1.0 | 8.0 | 0.00 | 0.43 | 0.00 | 88 | 1013.6 |
| 20260904065508 | 72 | 65 | 3.0 | 9.0 | 0.00 | 0.43 | 0.00 | 89 | 1013.6 |
| 20260904065013 | 72 | 75 | 4.0 | 9.0 | 0.00 | 0.43 | 0.00 | 89 | 1013.8 |
| 20260904064508 | 72 | 38 | 5.0 | 9.0 | 0.00 | 0.43 | 0.00 | 89 | 1013.8 |
| 20260904064007 | 72 | 65 | 3.0 | 9.0 | 0.00 | 0.43 | 0.00 | 89 | 1013.9 |
| 20260904063512 | 72 | 93 | 4.0 | 7.0 | 0.00 | 0.43 | 0.00 | 89 | 1014.0 |
| 20260904063014 | 72 | 41 | 4.0 | 7.0 | 0.00 | 0.43 | 0.00 | 89 | 1013.9 |
| 20260904062508 | 72 | 53 | 3.0 | 5.0 | 0.00 | 0.43 | 0.00 | 89 | 1013.9 |
| 20260904062015 | 72 | 65 | 2.0 | 6.0 | 0.00 | 0.43 | 0.00 | 89 | 1013.9 |
| 20260904061513 | 72 | 75 | 3.0 | 6.0 | 0.00 | 0.43 | 0.00 | 90 | 1013.9 |
| 20260904061015 | 72 | 42 | 3.0 | 4.0 | 0.00 | 0.43 | 0.00 | 90 | 1014.1 |
| 20260904060515 | 72 | 71 | 2.0 | 7.0 | 0.00 | 0.43 | 0.00 | 90 | 1014.0 |
| 20260904060013 | 72 | 15 | 2.0 | 7.0 | 0.00 | 0.43 | 0.00 | 90 | 1014.4 |
| 20260904055509 | 72 | 265 | 1.0 | 3.0 | 0.00 | 0.43 | 0.00 | 90 | 1014.3 |
| 20260904055015 | 72 | 53 | 2.0 | 10.0 | 0.00 | 0.43 | 0.00 | 89 | 1014.1 |
| 20260904054529 | 72 | 12 | 3.0 | 10.0 | 0.00 | 0.43 | 0.00 | 89 | 1014.4 |
| 20260904054011 | 73 | 31 | 5.0 | 9.0 | 0.00 | 0.43 | 0.00 | 89 | 1014.5 |
| 20260904053516 | 73 | 318 | 1.0 | 6.0 | 0.00 | 0.43 | 0.00 | 89 | 1014.4 |
| 20260904053013 | 73 | 59 | 3.0 | 6.0 | 0.00 | 0.43 | 0.00 | 88 | 1014.4 |
| 20260904052512 | 73 | 76 | 3.0 | 5.0 | 0.00 | 0.43 | 0.00 | 88 | 1014.5 |
| 20260904052015 | 73 | 83 | 1.0 | 2.0 | 0.00 | 0.43 | 0.00 | 88 | 1014.3 |
| 20260904051517 | 73 | 84 | 0.0 | 2.0 | 0.00 | 0.43 | 0.00 | 89 | 1014.4 |
| 20260904051015 | 73 | 76 | 0.0 | 3.0 | 0.00 | 0.43 | 0.00 | 89 | 1014.7 |
| 20260904050517 | 72 | 44 | 1.0 | 2.0 | 0.00 | 0.43 | 0.00 | 89 | 1014.5 |
| 20260904050021 | 72 | 100 | 0.0 | 2.0 | 0.00 | 0.43 | 0.00 | 89 | 1014.4 |
| 20260904045517 | 72 | 156 | 1.0 | 2.0 | 0.00 | 0.43 | 0.43 | 89 | 1014.5 |
| 20260904045014 | 72 | 280 | 0.0 | 3.0 | 0.00 | 0.43 | 0.43 | 89 | 1014.5 |
| 20260904044529 | 72 | 150 | 0.0 | 3.0 | 0.00 | 0.43 | 0.43 | 89 | 1014.4 |
| 20260904044014 | 72 | 142 | 1.0 | 3.0 | 0.00 | 0.43 | 0.43 | 89 | 1014.6 |
| 20260904043503 | 72 | 101 | 1.0 | 3.0 | 0.00 | 0.43 | 0.43 | 89 | 1014.9 |
| 20260904043024 | 72 | 59 | 2.0 | 3.0 | 0.00 | 0.43 | 0.43 | 88 | 1015.0 |
| 20260904042513 | 72 | 32 | 0.0 | 3.0 | 0.00 | 0.43 | 0.43 | 88 | 1014.9 |
| 20260904042022 | 72 | 58 | 0.0 | 3.0 | 0.00 | 0.43 | 0.43 | 88 | 1014.5 |
| 20260904041528 | 72 | 94 | 1.0 | 3.0 | 0.00 | 0.43 | 0.43 | 88 | 1014.4 |
| 20260904041017 | 72 | 47 | 0.0 | 5.0 | 0.00 | 0.43 | 0.43 | 88 | 1014.6 |
| 20260904040503 | 72 | 53 | 2.0 | 5.0 | 0.00 | 0.43 | 0.43 | 88 | 1014.7 |
| 20260904040028 | 72 | 59 | 2.0 | 4.0 | 0.00 | 0.43 | 0.43 | 88 | 1014.8 |
| 20260904035516 | 72 | 54 | 2.0 | 4.0 | 0.00 | 0.43 | 0.43 | 87 | 1014.7 |
| 20260904035008 | 72 | 47 | 2.0 | 4.0 | 0.00 | 0.43 | 0.43 | 87 | 1014.7 |
| 20260904034542 | 72 | 76 | 1.0 | 2.0 | 0.00 | 0.43 | 0.43 | 86 | 1014.6 |
| 20260904034003 | 72 | 78 | 0.0 | 2.0 | 0.00 | 0.43 | 0.43 | 86 | 1014.7 |
| 20260904033508 | 73 | 36 | 1.0 | 2.0 | 0.00 | 0.43 | 0.43 | 86 | 1014.7 |
| 20260904033030 | 72 | 67 | 0.0 | 2.0 | 0.00 | 0.43 | 0.43 | 86 | 1014.7 |
| 20260904032515 | 72 | 94 | 0.0 | 2.0 | 0.00 | 0.43 | 0.43 | 86 | 1014.7 |
| 20260904032006 | 72 | 79 | 1.0 | 2.0 | 0.00 | 0.43 | 0.43 | 86 | 1014.8 |
| 20260904031530 | 72 | 96 | 1.0 | 2.0 | 0.00 | 0.43 | 0.43 | 86 | 1015.0 |
| 20260904031003 | 72 | 86 | 0.0 | 2.0 | 0.00 | 0.43 | 0.43 | 86 | 1015.0 |
| 20260904030509 | 72 | 94 | 0.0 | 2.0 | 0.00 | 0.43 | 0.43 | 86 | 1015.0 |
| 20260904030034 | 72 | 112 | 0.0 | 2.0 | 0.00 | 0.43 | 0.43 | 86 | 1015.0 |
| 20260904025507 | 72 | 55 | 0.0 | 2.0 | 0.00 | 0.43 | 0.43 | 85 | 1014.9 |
| 20260904025020 | 73 | 109 | 0.0 | 2.0 | 0.00 | 0.43 | 0.43 | 85 | 1014.8 |
| 20260904024531 | 73 | 99 | 0.0 | 2.0 | 0.00 | 0.43 | 0.43 | 85 | 1014.8 |
| 20260904024004 | 73 | 96 | 1.0 | 2.0 | 0.00 | 0.43 | 0.43 | 84 | 1015.0 |
| 20260904023509 | 73 | 65 | 1.0 | 3.0 | 0.00 | 0.43 | 0.43 | 84 | 1015.0 |
| 20260904023032 | 73 | 67 | 1.0 | 3.0 | 0.00 | 0.43 | 0.43 | 84 | 1014.8 |
| 20260904022503 | 73 | 109 | 0.0 | 3.0 | 0.00 | 0.43 | 0.43 | 83 | 1014.6 |
| 20260904022012 | 73 | 113 | 1.0 | 4.0 | 0.00 | 0.43 | 0.43 | 83 | 1014.6 |
| 20260904021531 | 73 | 68 | 1.0 | 4.0 | 0.00 | 0.43 | 0.43 | 82 | 1014.5 |
| 20260904021007 | 74 | 110 | 2.0 | 4.0 | 0.00 | 0.43 | 0.43 | 82 | 1014.4 |
| 20260904020514 | 74 | 85 | 0.0 | 3.0 | 0.00 | 0.43 | 0.43 | 82 | 1014.4 |
| 20260904020031 | 74 | 115 | 1.0 | 3.0 | 0.00 | 0.43 | 0.43 | 82 | 1014.6 |
| 20260904015505 | 74 | 80 | 0.0 | 2.0 | 0.00 | 0.43 | 0.43 | 83 | 1014.5 |
| 20260904015013 | 74 | 27 | 1.0 | 3.0 | 0.00 | 0.43 | 0.43 | 83 | 1014.6 |
| 20260904014509 | 74 | 59 | 2.0 | 5.0 | 0.00 | 0.43 | 0.43 | 82 | 1014.5 |
| 20260904014012 | 74 | 35 | 2.0 | 5.0 | 0.00 | 0.43 | 0.43 | 82 | 1014.5 |
| 20260904013514 | 74 | 69 | 2.0 | 4.0 | 0.00 | 0.43 | 0.43 | 82 | 1014.2 |
| 20260904013009 | 74 | 58 | 1.0 | 5.0 | 0.00 | 0.43 | 0.43 | 81 | 1014.3 |
| 20260904012509 | 74 | 80 | 3.0 | 5.0 | 0.00 | 0.43 | 0.43 | 80 | 1014.3 |
| 20260904012016 | 74 | 65 | 2.0 | 3.0 | 0.00 | 0.43 | 0.43 | 80 | 1014.2 |
| 20260904011532 | 74 | 70 | 1.0 | 3.0 | 0.00 | 0.43 | 0.43 | 80 | 1014.1 |
| 20260904011011 | 74 | 55 | 0.0 | 4.0 | 0.00 | 0.43 | 0.43 | 80 | 1014.1 |
| 20260904010516 | 74 | 68 | 1.0 | 4.0 | 0.00 | 0.43 | 0.43 | 81 | 1014.1 |
| 20260904010012 | 74 | 66 | 2.0 | 4.0 | 0.00 | 0.43 | 0.43 | 81 | 1014.0 |
| 20260904005515 | 74 | 28 | 2.0 | 4.0 | 0.00 | 0.43 | 0.43 | 81 | 1013.8 |
| 20260904005013 | 74 | 71 | 2.0 | 4.0 | 0.00 | 0.43 | 0.43 | 81 | 1013.8 |
| 20260904004514 | 75 | 54 | 3.0 | 4.0 | 0.00 | 0.43 | 0.43 | 81 | 1013.9 |
| 20260904004010 | 75 | 51 | 2.0 | 7.0 | 0.00 | 0.43 | 0.43 | 81 | 1013.7 |
| 20260904003521 | 75 | 34 | 1.0 | 7.0 | 0.00 | 0.43 | 0.43 | 80 | 1013.6 |
| 20260904003014 | 75 | 53 | 2.0 | 6.0 | 0.00 | 0.43 | 0.43 | 80 | 1013.6 |
| 20260904002510 | 75 | 58 | 2.0 | 7.0 | 0.00 | 0.43 | 0.43 | 80 | 1013.6 |
| 20260904002018 | 75 | 49 | 2.0 | 7.0 | 0.00 | 0.43 | 0.43 | 80 | 1013.8 |
| 20260904001516 | 76 | 86 | 2.0 | 5.0 | 0.00 | 0.43 | 0.43 | 80 | 1013.7 |
| 20260904001004 | 76 | 82 | 2.0 | 6.0 | 0.00 | 0.43 | 0.43 | 79 | 1013.7 |
| 20260904000504 | 76 | 55 | 3.0 | 6.0 | 0.00 | 0.43 | 0.43 | 79 | 1013.8 |
| 20260904000007 | 76 | 165 | 1.0 | 4.0 | 0.00 | 0.43 | 0.43 | 79 | 1013.7 |
| 20260903235503 | 76 | 121 | 1.0 | 6.0 | 0.00 | 0.43 | 0.43 | 79 | 1013.9 |
| 20260903235003 | 76 | 37 | 4.0 | 6.0 | 0.00 | 0.43 | 0.43 | 78 | 1013.7 |
| 20260903234505 | 76 | 55 | 1.0 | 7.0 | 0.00 | 0.43 | 0.43 | 78 | 1013.7 |
| 20260903234003 | 76 | 30 | 3.0 | 7.0 | 0.00 | 0.43 | 0.43 | 78 | 1013.5 |
| 20260903233504 | 77 | 58 | 3.0 | 9.0 | 0.00 | 0.43 | 0.43 | 78 | 1013.5 |
| 20260903233016 | 77 | 102 | 3.0 | 8.0 | 0.00 | 0.43 | 0.43 | 78 | 1013.5 |
| 20260903232504 | 77 | 71 | 3.0 | 11.0 | 0.00 | 0.43 | 0.43 | 78 | 1013.8 |
| 20260903232003 | 77 | 96 | 2.0 | 11.0 | 0.00 | 0.43 | 0.43 | 77 | 1013.7 |
| 20260903231504 | 77 | 90 | 3.0 | 6.0 | 0.00 | 0.43 | 0.43 | 77 | 1013.5 |
| 20260903231002 | 77 | 72 | 1.0 | 5.0 | 0.00 | 0.43 | 0.43 | 76 | 1013.5 |
| 20260903230505 | 77 | 91 | 1.0 | 9.0 | 0.00 | 0.43 | 0.43 | 75 | 1013.3 |
| 20260903230012 | 78 | 173 | 3.0 | 9.0 | 0.00 | 0.43 | 0.43 | 75 | 1013.3 |
| 20260903225506 | 78 | 138 | 3.0 | 9.0 | 0.00 | 0.43 | 0.43 | 74 | 1013.4 |
| 20260903225004 | 79 | 22 | 3.0 | 9.0 | 0.00 | 0.43 | 0.43 | 76 | 1013.4 |
| 20260903224508 | 79 | 117 | 3.0 | 9.0 | 0.00 | 0.43 | 0.43 | 78 | 1013.5 |
| 20260903224004 | 79 | 56 | 2.0 | 8.0 | 0.00 | 0.43 | 0.43 | 79 | 1013.6 |
| 20260903223505 | 80 | 155 | 4.0 | 8.0 | 0.00 | 0.43 | 0.43 | 78 | 1013.5 |
| 20260903223010 | 80 | 94 | 2.0 | 5.0 | 0.00 | 0.43 | 0.43 | 79 | 1013.4 |
| 20260903222503 | 80 | 93 | 0.0 | 6.0 | 0.00 | 0.43 | 0.43 | 80 | 1013.4 |
| 20260903222003 | 79 | 63 | 2.0 | 7.0 | 0.00 | 0.43 | 0.43 | 81 | 1013.4 |
| 20260903221508 | 79 | 111 | 3.0 | 7.0 | 0.00 | 0.43 | 0.43 | 81 | 1013.4 |
| 20260903221003 | 80 | 115 | 3.0 | 7.0 | 0.00 | 0.43 | 0.43 | 81 | 1013.5 |
| 20260903220503 | 80 | 95 | 2.0 | 5.0 | 0.00 | 0.43 | 0.43 | 81 | 1013.6 |
| 20260903220008 | 80 | 68 | 2.0 | 5.0 | 0.00 | 0.43 | 0.43 | 80 | 1013.5 |
| 20260903215503 | 79 | 86 | 2.0 | 6.0 | 0.00 | 0.43 | 0.43 | 80 | 1013.7 |
| 20260903215005 | 80 | 68 | 3.0 | 6.0 | 0.00 | 0.43 | 0.43 | 80 | 1013.7 |
| 20260903214509 | 79 | 93 | 3.0 | 5.0 | 0.00 | 0.43 | 0.43 | 80 | 1013.6 |
| 20260903214003 | 80 | 54 | 3.0 | 5.0 | 0.00 | 0.43 | 0.43 | 79 | 1013.6 |
| 20260903213502 | 80 | 111 | 0.0 | 4.0 | 0.00 | 0.43 | 0.43 | 80 | 1013.5 |
| 20260903213010 | 80 | 136 | 2.0 | 3.0 | 0.00 | 0.43 | 0.43 | 79 | 1013.5 |
| 20260903212510 | 80 | 80 | 1.0 | 5.0 | 0.00 | 0.43 | 0.43 | 78 | 1013.4 |
| 20260903212004 | 80 | 53 | 2.0 | 5.0 | 0.00 | 0.43 | 0.43 | 78 | 1013.3 |
| 20260903211518 | 80 | 123 | 1.0 | 7.0 | 0.00 | 0.43 | 0.43 | 79 | 1013.3 |
| 20260903211006 | 79 | 24 | 3.0 | 7.0 | 0.00 | 0.43 | 0.43 | 80 | 1013.4 |
| 20260903210504 | 79 | 90 | 2.0 | 8.0 | 0.00 | 0.43 | 0.43 | 79 | 1013.5 |
| 20260903210013 | 79 | 131 | 3.0 | 8.0 | 0.00 | 0.43 | 0.43 | 79 | 1013.5 |
| 20260903205507 | 79 | 51 | 3.0 | 8.0 | 0.00 | 0.43 | 0.43 | 79 | 1013.6 |
| 20260903205005 | 79 | 56 | 3.0 | 9.0 | 0.00 | 0.43 | 0.43 | 79 | 1013.7 |
| 20260903204515 | 80 | 65 | 5.0 | 9.0 | 0.00 | 0.43 | 0.43 | 78 | 1013.8 |
| 20260903204006 | 80 | 51 | 5.0 | 8.0 | 0.00 | 0.43 | 0.43 | 78 | 1013.8 |
| 20260903203507 | 81 | 55 | 4.0 | 7.0 | 0.00 | 0.43 | 0.43 | 78 | 1013.8 |
| 20260903203026 | 81 | 68 | 1.0 | 3.0 | 0.00 | 0.43 | 0.43 | 76 | 1013.8 |
| 20260903202508 | 81 | 78 | 1.0 | 3.0 | 0.00 | 0.43 | 0.43 | 77 | 1013.8 |
| 20260903202004 | 80 | 90 | 0.0 | 4.0 | 0.00 | 0.43 | 0.43 | 79 | 1013.6 |
| 20260903201513 | 79 | 177 | 1.0 | 4.0 | 0.00 | 0.43 | 0.43 | 80 | 1013.6 |
| 20260903201007 | 79 | 173 | 0.0 | 3.0 | 0.00 | 0.43 | 0.43 | 80 | 1013.6 |
| 20260903200508 | 79 | 229 | 1.0 | 3.0 | 0.00 | 0.43 | 0.43 | 81 | 1013.6 |
| 20260903200012 | 79 | 160 | 0.0 | 2.0 | 0.00 | 0.43 | 0.43 | 83 | 1013.5 |
| 20260903195510 | 79 | 230 | 1.0 | 2.0 | 0.00 | 0.43 | 0.43 | 82 | 1013.5 |
| 20260903195007 | 79 | 194 | 0.0 | 3.0 | 0.00 | 0.43 | 0.43 | 82 | 1013.3 |
| 20260903194512 | 79 | 263 | 1.0 | 5.0 | 0.00 | 0.43 | 0.43 | 82 | 1013.4 |
| 20260903194010 | 79 | 192 | 2.0 | 5.0 | 0.00 | 0.43 | 0.43 | 81 | 1013.4 |
| 20260903193506 | 79 | 205 | 0.0 | 2.0 | 0.00 | 0.43 | 0.43 | 81 | 1013.5 |
| 20260903193020 | 79 | 298 | 0.0 | 2.0 | 0.00 | 0.43 | 0.43 | 82 | 1013.6 |
| 20260903192507 | 78 | 185 | 1.0 | 3.0 | 0.00 | 0.43 | 0.43 | 83 | 1013.5 |
| 20260903192007 | 78 | 172 | 1.0 | 4.0 | 0.00 | 0.43 | 0.43 | 82 | 1013.7 |
| 20260903191515 | 78 | 215 | 1.0 | 6.0 | 0.00 | 0.43 | 0.43 | 82 | 1013.9 |
| 20260903191007 | 77 | 254 | 3.0 | 6.0 | 0.00 | 0.43 | 0.43 | 83 | 1014.0 |
| 20260903190510 | 78 | 227 | 2.0 | 4.0 | 0.01 | 0.43 | 0.43 | 82 | 1013.9 |
| 20260903190018 | 77 | 231 | 2.0 | 4.0 | 0.01 | 0.43 | 0.43 | 81 | 1013.8 |
| 20260903185509 | 77 | 205 | 1.0 | 8.0 | 0.01 | 0.43 | 0.43 | 82 | 1013.9 |
| 20260903185011 | 77 | 242 | 2.0 | 8.0 | 0.01 | 0.43 | 0.43 | 82 | 1013.9 |
| 20260903184517 | 77 | 205 | 3.0 | 8.0 | 0.01 | 0.43 | 0.43 | 82 | 1014.1 |
| 20260903184010 | 77 | 281 | 3.0 | 5.0 | 0.01 | 0.43 | 0.43 | 83 | 1014.1 |
| 20260903183509 | 78 | 237 | 2.0 | 7.0 | 0.01 | 0.43 | 0.43 | 82 | 1014.1 |
| 20260903183020 | 78 | 175 | 2.0 | 7.0 | 0.01 | 0.43 | 0.43 | 84 | 1014.1 |
| 20260903182508 | 78 | 236 | 3.0 | 6.0 | 0.01 | 0.43 | 0.43 | 83 | 1014.1 |
| 20260903182008 | 77 | 234 | 3.0 | 4.0 | 0.03 | 0.43 | 0.43 | 87 | 1014.3 |
| 20260903181518 | 76 | 248 | 1.0 | 3.0 | 0.03 | 0.43 | 0.43 | 90 | 1014.2 |
| 20260903181003 | 76 | 160 | 0.0 | 3.0 | 0.03 | 0.43 | 0.43 | 90 | 1014.2 |
| 20260903180507 | 75 | 130 | 1.0 | 3.0 | 0.02 | 0.42 | 0.42 | 88 | 1014.3 |
| 20260903180023 | 75 | 292 | 1.0 | 4.0 | 0.02 | 0.42 | 0.42 | 88 | 1015.0 |